Weather History for Belize, Belize

Change the Weather History Date:

Friday, March 29, 2013

  Actual Average Record
Temperature  
Mean Temperature 76 °F -  
Max Temperature 82 °F 87 °F 91 °F (2009)
Min Temperature 71 °F 73 °F 69 °F (2006)
Cooling Degree Days 12    
Growing Degree Days 26 (Base 50)    
Moisture  
Dew Point 64 °F    
Average Humidity 63    
Maximum Humidity 83    
Minimum Humidity 47    
Precipitation  
Precipitation 0.00 in 0.07 in - ()
Sea Level Pressure  
Sea Level Pressure 30.11 in    
Wind  
Wind Speed 6 mph ()    
Max Wind Speed 10 mph    
Max Gust Speed -    
Visibility 8.6 miles    
Events      
Averages and records for this station are not official NWS values.
T = Trace of Precipitation, MM = Missing Value Source: Averaged Metar Reports

Daily Weather History Graph

Daily Weather History Graph

Search for Another Location

Airport:

Trip Planner

Search our weather history database for the weather conditions in past years. The results will help you decide how hot, cold, wet, or windy it might be!

Date:

Astronomy

Mar. 29, 2013 Rise Set
Actual Time 5:49 AM CST 6:06 PM CST
Civil Twilight 5:28 AM CST 6:27 PM CST
Nautical Twilight 5:02 AM CST 6:53 PM CST
Astronomical Twilight 4:37 AM CST 7:18 PM CST
Moon 8:36 PM CST (3/29) 7:23 AM CST (3/29)
Length of Visible Light 12h 59m
Length of Day
12h 16m
Waning Gibbous, 93% of the Moon is Illuminated
Mar 29
Waning Gibbous
Apr 2
Last Quarter
Apr 10
New
Apr 18
First Quarter
Apr 25
Full

Hourly Weather History & Observations

Time (CST) Temp. Heat Index Dew Point Humidity Pressure Visibility Wind Dir Wind Speed Gust Speed Precip Events Conditions
12:00 AM 74 °F - 65 °F 66% 30.14 in 12 mi East 5.8 mph - -   Scattered Clouds
3:00 AM 74 °F - 65 °F 66% 30.08 in 12 mi East 5.8 mph - -   Scattered Clouds
5:00 AM 73.4 °F - 64.4 °F 73% 30.09 in 6.2 mi East 4.6 mph - N/A   Mostly Cloudy
6:00 AM 73 °F - 64 °F 67% 30.11 in 12 mi East 3.5 mph - -   Scattered Clouds
6:00 AM 73.4 °F - 64.4 °F 73% 30.09 in 6.2 mi East 3.5 mph - N/A   Mostly Cloudy
7:00 AM 75.2 °F - 66.2 °F 73% 30.12 in 6.2 mi East 3.5 mph - N/A   Mostly Cloudy
8:00 AM 77.0 °F - 62.6 °F 61% 30.12 in 6.2 mi East 8.1 mph - N/A   Mostly Cloudy
9:00 AM 78 °F - 65 °F 56% 30.17 in 14 mi NE 6.9 mph - -   Mostly Cloudy
9:00 AM 77.0 °F - 66.2 °F 69% 30.16 in 6.2 mi NE 6.9 mph - N/A   Mostly Cloudy
10:00 AM 80.6 °F 82.3 °F 64.4 °F 58% 30.17 in 6.2 mi ENE 10.4 mph - N/A   Mostly Cloudy
11:00 AM 80.6 °F 81.5 °F 60.8 °F 51% 30.16 in 6.2 mi NE 10.4 mph - N/A   Scattered Clouds
12:00 PM 81 °F - 64 °F 47% 30.14 in 16 mi NE 10.4 mph - -   Scattered Clouds
12:00 PM 80.6 °F 82.3 °F 64.4 °F 58% 30.14 in 6.2 mi NE 10.4 mph - N/A   Partly Cloudy
1:00 PM 80.6 °F 81.8 °F 62.6 °F 54% 30.11 in 6.2 mi NE 9.2 mph - N/A   Partly Cloudy
2:00 PM 80.6 °F 81.8 °F 62.6 °F 54% 30.09 in 6.2 mi ENE 9.2 mph - N/A   Partly Cloudy
3:00 PM 80 °F - 64 °F 49% 30.07 in 16 mi NE 8.1 mph - -   Scattered Clouds
3:00 PM 80.6 °F 82.3 °F 64.4 °F 58% 30.07 in 6.2 mi NE 8.1 mph - N/A   Partly Cloudy
4:00 PM 80.6 °F 82.3 °F 64.4 °F 58% 30.06 in 6.2 mi ENE 8.1 mph - N/A   Partly Cloudy
5:00 PM 78.8 °F - 64.4 °F 61% 30.06 in 6.2 mi ENE 8.1 mph - N/A   Partly Cloudy
6:00 PM 77 °F - 64 °F 57% 30.08 in 16 mi ENE 6.9 mph - -   Scattered Clouds
6:00 PM 77.0 °F - 64.4 °F 65% 30.07 in 6.2 mi ENE 6.9 mph - N/A   Partly Cloudy
7:00 PM 77.0 °F - 64.4 °F 65% 30.08 in 6.2 mi ENE 3.5 mph - N/A   Partly Cloudy
8:00 PM 75.2 °F - 64.4 °F 69% 30.09 in 6.2 mi East 3.5 mph - N/A   Scattered Clouds
9:00 PM 74 °F - 67 °F 73% 30.10 in 12 mi East 3.5 mph - -   Scattered Clouds
9:00 PM 73.4 °F - 68.0 °F 83% 30.09 in 6.2 mi East 3.5 mph - N/A   Partly Cloudy